| Date | Time | Temp. (oF) | Dew Point (oF) | Rel. Hum. (%) | Press. (in.) | Wind Dir. | Wind Speed (mph) | Hourly Rainfall (in.) |
|
|---|---|---|---|---|---|---|---|---|---|
| 1 | 04/10 | 00:00 | 38 | 36 | 95 | 30.16 | ESE | 4 | 0.00 |
| 2 | 04/09 | 23:00 | 38 | 36 | 95 | 30.14 | SSE | 10 | 0.01 |
| 3 | 04/09 | 22:00 | 39 | 37 | 96 | 30.25 | S | 3 | 0.00 |
| 4 | 04/09 | 21:00 | 39 | 37 | 96 | 30.20 | SE | 5 | 0.00 |
| 5 | 04/09 | 20:00 | 40 | 38 | 96 | 30.20 | E | 5 | 0.00 |
| 6 | 04/09 | 19:00 | 40 | 38 | 96 | 30.21 | ESE | 6 | 0.00 |
| 7 | 04/09 | 18:00 | 40 | 38 | 96 | 30.20 | E | 8 | 0.00 |
| 8 | 04/09 | 17:00 | 41 | 39 | 95 | 30.21 | ESE | 11 | 0.00 |
| 9 | 04/09 | 16:00 | 41 | 39 | 95 | 30.22 | E | 4 | 0.00 |
| 10 | 04/09 | 15:00 | 41 | 39 | 95 | 30.23 | ESE | 8 | 0.00 |
| 11 | 04/09 | 14:00 | 41 | 39 | 96 | 30.24 | SE | 10 | 0.00 |
| 12 | 04/09 | 13:00 | 41 | 39 | 95 | 30.24 | E | 7 | 0.00 |
| 13 | 04/09 | 12:00 | 40 | 38 | 96 | 30.25 | ESE | 7 | 0.00 |
| 14 | 04/09 | 11:00 | 40 | 38 | 96 | 30.26 | E | 5 | 0.00 |
| 15 | 04/09 | 10:00 | 39 | 37 | 96 | 30.27 | E | 4 | 0.00 |
| 16 | 04/09 | 09:00 | 38 | 37 | 97 | 30.25 | ESE | 2 | 0.00 |
| 17 | 04/09 | 08:00 | 38 | 36 | 96 | 30.21 | ENE | 10 | 0.00 |
| 18 | 04/09 | 07:00 | 37 | 35 | 96 | 30.19 | ENE | 2 | 0.00 |
| 19 | 04/09 | 06:00 | 38 | 37 | 97 | 30.20 | ESE | 4 | 0.00 |
| 20 | 04/09 | 05:00 | 38 | 37 | 97 | 30.20 | NNE | 2 | 0.00 |
| 21 | 04/09 | 04:00 | 38 | 36 | 96 | 30.22 | W | 2 | 0.00 |
| 22 | 04/09 | 03:00 | 37 | 35 | 96 | 30.20 | ESE | 0 | 0.00 |
| 23 | 04/09 | 02:00 | 37 | 35 | 96 | 30.19 | SE | 2 | 0.00 |
| 24 | 04/09 | 01:00 | 37 | 35 | 96 | 30.22 | E | 4 | 0.00 |